This is the latest recevied weather packets stored in our database for station/object CE3PA-5. If no packets are shown the sender has not sent any weather packets the latest 1 day(s).
| Time | Temp. | Humidity | Pressure | Rain* | Wind** | Luminosity | Snow |
|---|---|---|---|---|---|---|---|
| 1778078459 | 11.11° C | 22% | 753.2 hPa | - | - | - | - |
| 1778077559 | 12.22° C | 22% | 753.2 hPa | - | - | - | - |
| 1778076658 | 11.67° C | 22% | 753.3 hPa | - | - | - | - |
| 1778073958 | 12.22° C | 22% | 753.6 hPa | - | - | - | - |
| 1778072158 | 8.89° C | 23% | 753.4 hPa | - | - | - | - |
| 1778070357 | 5.56° C | 23% | 753.4 hPa | - | - | - | - |
| 1778060464 | 6.67° C | 22% | 752.5 hPa | - | - | - | - |
| 1778059562 | 6.67° C | 22% | 752.4 hPa | - | - | - | - |
| 1778055062 | 6.67° C | 22% | 752.4 hPa | - | - | - | - |
| 1778051461 | 7.78° C | 21% | 752.7 hPa | - | - | - | - |
| 1778050564 | 7.78° C | 21% | 752.9 hPa | - | - | - | - |
| 1778043359 | 8.89° C | 21% | 753.3 hPa | - | - | - | - |
| 1778037058 | 10° C | 21% | 753.6 hPa | - | - | - | - |
| 1778036157 | 10° C | 21% | 753.7 hPa | - | - | - | - |
| 1778028956 | 10.56° C | 21% | 754 hPa | - | - | - | - |
| 1778018158 | 14.44° C | 21% | 753.8 hPa | - | - | - | - |
| 1778017258 | 14.44° C | 21% | 753.6 hPa | - | - | - | - |
| 1778016358 | 15° C | 21% | 753.7 hPa | - | - | - | - |
| 1778014557 | 15.56° C | 21% | 754 hPa | - | - | - | - |
| 1778012759 | 16.67° C | 21% | 754.2 hPa | - | - | - | - |
| 1778010056 | 17.78° C | 21% | 754.2 hPa | - | - | - | - |
| 1778005555 | 20° C | 19% | 754.2 hPa | - | - | - | - |
| 1778002859 | 24.44° C | 17% | 754.3 hPa | - | - | - | - |
| 1778001958 | 25° C | 17% | 754.6 hPa | - | - | - | - |
* Rain since midnight (hover to see other rain measurements)
** Current wind speed in m/s (hover to see current wind gust speed)